Regional Weather Roundup
Issued by NWS

Home | Current Version | Previous Version | Graphics & Text | Print | Product List | Glossary On
Versions: 1 2 3 4 5 6 7 8 9 10 11 12 13 14 15 16 17 18 19 20 21 22 23 24 25 26 27 28 29 30 31 32 33 34 35 36 37 38 39 40 41 42 43 44 45 46 47 48 49 50
000
ASUS45 KBOI 281010
RWRID
WEATHER ROUNDUP FOR IDAHO
NATIONAL WEATHER SERVICE BOISE ID
300 AM MST WED JAN 28 2015

NOTE: "FAIR" INDICATES FEW OR NO CLOUDS BELOW 12000 FEET
WITH NO SIGNIFICANT WEATHER AND/OR OBSTRUCTIONS TO VISIBILITY

IDZ012-014-281100-
SOUTHWEST IDAHO


CITY           SKY/WX    TMP DP  RH WIND       PRES   REMARKS
BOISE          FOG       35  34  96 N3        30.24R VSB 1/4
CALDWELL       CLOUDY    32  27  80 CALM      30.26R VSB 1/4
MOUNTAIN HOME  FOG       34  34 100 W5        30.23R VSB 1/2 WCI  30
$$

IDZ016-017-281100-
SOUTHCENTRAL IDAHO


CITY           SKY/WX    TMP DP  RH WIND       PRES   REMARKS
BURLEY         CLOUDY    40  38  93 W10       30.18R WCI  33
JEROME         FOG       35  34  96 SW3       30.19R VSB 1/4
TWIN FALLS     CLOUDY    42  37  82 S12       30.18S
$$

IDZ019>023-281100-
SOUTHEAST IDAHO


CITY           SKY/WX    TMP DP  RH WIND       PRES   REMARKS
IDAHO FALLS    CLOUDY    37  36  96 S13       30.15R FOG     WCI  29
POCATELLO      LGT RAIN  40  40 100 SW10      30.18R WCI  33
REXBURG        LGT RAIN  50  35  56 SW10      30.13R
$$

IDZ006-010-011-018-031-032-281100-
CENTRAL IDAHO MOUNTAINS


CITY           SKY/WX    TMP DP  RH WIND       PRES   REMARKS
MCCALL         CLOUDY    31  29  92 CALM      30.17R
HAILEY         CLOUDY    34  34 100 CALM      30.17R FOG
STANLEY          N/A     34  31  88 CALM      30.18R
SALMON         CLOUDY   N/A N/A N/A CALM      30.17R
CHALLIS        CLOUDY    32  32 100 S3        30.16R FOG
$$

IDZ002-004-006-007-026-281100-
NORTHERN IDAHO


CITY           SKY/WX    TMP DP  RH WIND       PRES   REMARKS
LEWISTON       PTCLDY    37  35  92 CALM      30.24R
LOWELL           N/A     36  33  89 N3        30.26R
COEUR D`ALENE  CLOUDY    36  34  93 W5        30.19R WCI  32
MULLAN PASS    FOG       29  28  96 VRB5      30.11R VSB 3/4 WCI  24
$$


USA.gov is the U.S. government's official web portal to all federal, state and local government web resources and services.